Lamoni, IA

7:51 AM CDT on April 30, 2017 (GMT -0500)
Lamoni Municipal

Weather History for KLWD - December, 2012

Change the Weather History Date:

Sunday, December 2, 2012

  Actual Average Record
Temperature  
Mean Temperature 44 °F 31 °F  
Max Temperature 49 °F 40 °F 64 °F (1962)
Min Temperature 39 °F 23 °F 0 °F (1985)
Degree Days  
Heating Degree Days 21 34  
Month to date heating degree days 38 67  
Since 1 July heating degree days 1234 1315  
Cooling Degree Days 0 0  
Month to date cooling degree days 0 0  
Year to date cooling degree days 1312 946  
Moisture  
Dew Point 44 °F    
Average Humidity 96    
Maximum Humidity 100    
Minimum Humidity 92    
Precipitation  
Precipitation 0.00 in 0.05 in 0.35 in (1990)
Month to date precipitation 0.00 0.11  
Sea Level Pressure  
Sea Level Pressure 29.96 in    
Wind  
Wind Speed 4 mph (South)    
Max Wind Speed 12 mph    
Max Gust Speed 15 mph    
T = Trace of Precipitation, MM = Missing Value Source: NWS Daily Summary

Daily Weather History Graph

Daily Weather History Graph

Search for Another Location

Airport or City:

Trip Planner

Search our weather history database for the weather conditions in past years. The results will help you decide how hot, cold, wet, or windy it might be!

Date:

Astronomy

Dec. 02, 2012 Rise Set
Actual Time 7:21 AM CST 4:48 PM CST
Civil Twilight 6:51 AM CST 5:19 PM CST
Nautical Twilight 6:17 AM CST 5:53 PM CST
Astronomical Twilight 5:44 AM CST 6:26 PM CST
Moon 8:37 PM CST (12/2) 10:11 AM CST (12/2)
Length of Visible Light 10h 28m
Length of Day
9h 27m
Waning Gibbous, 85% of the Moon is Illuminated
Dec 2
Waning Gibbous
Dec 6
Last Quarter
Dec 13
New
Dec 19
First Quarter
Dec 28
Full

Hourly Weather History & Observations

Time (CST) Temp. Windchill Dew Point Humidity Pressure Visibility Wind Dir Wind Speed Gust Speed Precip Events Conditions
12:53 AM 46.9 °F - 46.0 °F 97% 29.88 in 0.2 mi West 5.8 mph - N/A Fog Fog
1:53 AM 44.1 °F 41.5 °F 43.0 °F 96% 29.90 in 0.2 mi West 4.6 mph - N/A Fog Fog
2:53 AM 41.0 °F - 39.9 °F 96% 29.91 in 0.2 mi Calm Calm - N/A Fog Fog
3:53 AM 41.0 °F 39.0 °F 39.9 °F 96% 29.91 in 0.2 mi West 3.5 mph - N/A Fog Fog
4:53 AM 41.0 °F 39.0 °F 39.9 °F 96% 29.93 in 0.2 mi West 3.5 mph - N/A Fog Fog
5:53 AM 41.0 °F 38.0 °F 39.9 °F 96% 29.96 in 0.2 mi WNW 4.6 mph - N/A Fog Fog
6:53 AM 42.1 °F 39.2 °F 41.0 °F 96% 29.98 in 0.2 mi NW 4.6 mph - N/A Fog Fog
7:53 AM 42.1 °F - 41.0 °F 96% 30.01 in 0.2 mi Calm Calm - N/A Fog Fog
8:53 AM 45.0 °F - 44.1 °F 97% 30.02 in 0.2 mi Calm Calm - N/A Fog Fog
9:53 AM 46.9 °F - 45.0 °F 93% 30.03 in 0.2 mi Calm Calm - N/A Fog Fog
10:53 AM 46.9 °F - 46.9 °F 100% 30.04 in 0.2 mi Calm Calm - N/A Fog Fog
11:53 AM 48.0 °F - 46.9 °F 96% 30.02 in 0.2 mi Calm Calm - N/A Fog Fog
12:53 PM 48.9 °F - 48.0 °F 97% 30.00 in 0.2 mi Calm Calm - N/A Fog Fog
1:53 PM 48.9 °F - 48.0 °F 97% 29.97 in 0.2 mi Calm Calm - N/A Fog Fog
3:53 PM 48.0 °F - 46.9 °F 96% 29.96 in 0.2 mi SSE 9.2 mph - N/A Fog Fog
4:53 PM 48.0 °F - 46.9 °F 96% 29.96 in 0.2 mi SSE 8.1 mph - N/A Fog Fog
6:53 PM 46.0 °F 43.1 °F 45.0 °F 96% 29.97 in 0.2 mi ESE 5.8 mph - N/A Fog Fog
7:53 PM 46.0 °F 41.9 °F 46.0 °F 100% 29.95 in 0.2 mi SE 8.1 mph - N/A Fog Fog
8:53 PM 46.0 °F 41.4 °F 45.0 °F 96% 29.93 in 0.2 mi SSE 9.2 mph - N/A Fog Fog
9:53 PM 45.0 °F 40.1 °F 44.1 °F 97% 29.91 in 0.2 mi SE 9.2 mph - N/A Fog Fog
10:53 PM 45.0 °F 40.6 °F 45.0 °F 100% 29.90 in 0.2 mi SE 8.1 mph - N/A Fog Fog
11:53 PM 46.0 °F 43.1 °F 45.0 °F 96% 29.89 in 0.2 mi SE 5.8 mph - N/A Fog Fog